[[{"header":{"parameterUnit":"m.s-1","parameterCategory":1,"la1":30.2991,"la2":30.254,"lo1":-89.0895,"lo2":-89.0444,"dy":0.0017,"dx":0.0017,"nx":28,"ny":28,"refTime":"2023-09-22T21:00:00:Z","depth":0,"parameterNumber":2,"parameterNumberName":"U-component_of_WINDS"},"data":[0,0,0,0,0,0,0,0,0,0,0,0,0,0,0,0,0,0,0,0,0,0,0,0,0,0,0,0,0,0,0,0,0,0,0,0,0,0,0,0,0,0,0,0,0,0,0,0,0,0,0,0,0,0,0,0,0,0,-3.9023,-3.9023,0,-3.9019,-3.9019,-3.9019,-3.8912,-3.891,-3.8907,-3.8904,-3.8902,-3.8905,-3.8907,0,0,0,0,0,0,0,0,0,0,0,0,0,-3.8939,-3.8941,-3.9023,-3.9023,-3.9023,-3.9019,-3.9019,-3.9019,-3.8913,-3.891,-3.8906,-3.8903,-3.8901,-3.8904,-3.8907,0,0,0,0,0,0,0,0,0,0,0,0,0,-3.8959,-3.8942,-3.9023,-3.8969,-3.8964,-3.9019,-3.9019,-3.9019,-3.8914,-3.8909,-3.8905,-3.8901,-3.89,-3.8904,-3.8908,-3.9014,0,0,-3.8919,-3.8921,0,0,0,0,0,0,0,0,-3.8958,-3.8963,-3.8977,-3.8973,-3.8968,-3.8962,-3.8989,-3.9018,-3.8915,-3.8933,-3.8904,-3.8899,-3.8926,-3.8927,-3.8936,-3.9014,-3.9014,-3.892,-3.8922,-3.8924,-3.8925,0,0,0,0,0,0,0,-3.8957,-3.8962,-3.9021,-3.8977,-3.8972,-3.8946,-3.8944,-3.8994,-3.8953,-3.8931,-3.8923,-3.8924,-3.8922,-3.8932,-3.8935,-3.9014,-3.892,-3.8923,-3.8925,-3.8927,-3.9181,-3.9186,0,0,0,0,0,0,-3.8963,-3.8962,-3.9021,-3.9021,-3.8953,-3.8951,-3.8949,-3.8968,-3.8952,-3.8945,-3.8928,-3.8919,-3.8928,-3.893,-3.8934,-3.9059,-3.8924,-3.8927,-3.8929,-3.9177,-3.9182,-3.9187,0,0,0,0,0,0,-3.8962,-3.8969,-3.9022,-3.8989,-3.8994,-3.8957,-3.8979,-3.897,-3.898,-3.8949,-3.8942,-3.8945,-3.8925,-3.8929,-3.8995,-3.9057,-3.8929,-3.8932,-3.9172,-3.9179,-3.9185,-3.9309,0,0,0,0,0,0,-3.896,-3.8969,-3.9009,-3.8991,-3.8996,-3.9083,-3.8983,-3.8973,-3.8987,-3.8975,-3.8964,-3.8958,-3.8922,-3.899,-3.8999,-3.906,-3.8935,-3.9166,-3.9175,-3.9183,-3.9299,-3.9319,-3.9336,0,0,0,0,0,-3.8957,-3.9044,-3.9012,-3.9019,-3.9045,-3.9086,-3.9089,-3.9045,-3.8992,-3.9032,-3.9012,-3.8958,-3.9049,-3.8998,-3.9007,-3.907,-3.9162,-3.9172,-3.9182,-3.9291,-3.9315,-3.9336,0,0,0,0,0,0,-3.907,-3.9041,-3.9004,-3.9088,-3.9091,-3.9068,-3.9117,-3.9072,-3.909,-3.9079,-3.9024,-3.9023,-3.9098,-3.909,-3.9034,-3.9173,-3.9096,-3.9109,-3.9176,-3.9199,-3.9217,-3.9218,-3.8938,0,0,0,0,0,-3.9105,-3.9141,-3.9113,-3.919,-3.9193,-3.9155,-3.9172,-3.9138,-3.9138,-3.9139,-3.9124,-3.9127,-3.9156,-3.9177,-3.9202,-3.9297,-3.9294,-3.9345,-3.9364,-3.9379,-3.9391,-3.9443,-3.9466,-3.9221,-3.922,-3.922,0,0,-3.9177,-3.9166,-3.9192,-3.9212,-3.921,-3.9249,-3.9157,-3.9202,-3.923,-3.9146,-3.9208,-3.9197,-3.9197,-3.9279,-3.9315,-3.9275,-3.9458,-3.9392,-3.9405,-3.9408,-3.9456,-3.9479,-3.95,-3.9227,-3.9226,-3.9225,0,0,-3.9329,-3.9323,-3.9387,-3.9387,-3.9385,-3.936,-3.9375,-3.936,-3.935,-3.9411,-3.9349,-3.9382,-3.9434,-3.9437,-3.9445,-3.9599,-3.9551,-3.9609,-3.9706,-3.9757,-3.9776,-3.9793,-3.985,-3.9871,-3.962,-3.9621,-3.9621,0,-3.942,-3.9476,-3.9426,-3.9476,-3.9487,-3.9412,-3.9477,-3.9479,-3.9486,-3.9496,-3.9452,-3.9515,-3.951,-3.9592,-3.963,-3.9638,-3.9656,-3.961,-3.9777,-3.9794,-3.9809,-3.9863,-3.9884,-3.9628,-3.9627,-3.9626,-3.9626,0,-3.9587,-3.9627,-3.9679,-3.9688,-3.9705,-3.9762,-3.9722,-3.9746,-3.971,-3.969,-3.9755,-3.9745,-3.9768,-3.9784,-3.975,-3.9863,-3.9839,-3.9787,-3.9708,-3.984,-3.989,-3.991,-3.9638,-3.9636,-3.9633,-3.9632,0,0,-3.9811,-3.9792,-3.9812,-3.9816,-3.9808,-3.9839,-3.9893,-3.9915,-3.9937,-3.9944,-3.9989,-4.0034,-3.9987,-3.9996,-3.9961,-4.0006,-4.0131,-3.9949,-3.9948,-3.9984,-4.0257,-4.0297,-4.0322,-4.0098,-4.0102,-4.0105,-4.0257,0,-3.996,-4.0051,-4.0008,-4.0105,-4.0142,-4.0071,-4.0118,-4.012,-4.0102,-4.0132,-4.0112,-4.0146,-4.0079,-4.0085,-4.0126,-4.0108,-4.0186,-4.0096,-4.0141,-4.0144,-4.0145,-4.0347,-4.039,-4.0534,-4.0276,-4.0279,-4.0282,0,-4.0145,-4.016,-4.0261,-4.0248,-4.0262,-4.0305,-4.0322,-4.0351,-4.0351,-4.0335,-4.0347,-4.0302,-4.0356,-4.0277,-4.035,-4.029,-4.0306,-4.03,-4.0305,-4.0309,-4.0222,-4.0358,-4.0579,-4.0601,-4.0311,-4.0309,-4.0307,0,-4.03,-4.0346,-4.0412,-4.0417,-4.0403,-4.0436,-4.0432,-4.0428,-4.0444,-4.0459,-4.047,-4.0491,-4.0503,-4.0521,-4.0484,-4.043,-4.0564,-4.0482,-4.0554,-4.0555,-4.0586,-4.0585,-4.0814,-4.0594,-4.0594,-4.0593,-4.0593,0,-4.0471,-4.0536,-4.0482,-4.0523,-4.0594,-4.0544,-4.0616,-4.0604,-4.0601,-4.064,-4.0579,-4.0617,-4.0564,-4.0597,-4.0568,-4.0635,-4.064,-4.063,-4.0622,-4.0637,-4.0638,-4.0647,-4.0637,-4.0599,-4.0598,-4.0597,-4.0596,0,-4.0657,-4.0624,-4.0691,-4.0673,-4.067,-4.0723,-4.0707,-4.0745,-4.0723,-4.0773,-4.0781,-4.0748,-4.0783,-4.0748,-4.0781,-4.0761,-4.0851,-4.0827,-4.0851,-4.0845,-4.092,-4.0914,-4.1164,-4.1196,-4.0954,-4.0957,-4.0959,0,-4.0769,-4.0818,-4.0805,-4.0826,-4.0825,-4.086,-4.0876,-4.083,-4.085,-4.0854,-4.0892,-4.0922,-4.0944,-4.1004,-4.0983,-4.1008,-4.0986,-4.1072,-4.0989,-4.1003,-4.0989,-4.0988,-4.0993,-4.1089,-4.1092,-4.1094,-4.1096,0,-4.0973,-4.0954,-4.098,-4.1001,-4.1022,-4.1036,-4.1046,-4.1067,-4.1018,-4.1044,-4.1079,-4.1096,-4.113,-4.1162,-4.1181,-4.1177,-4.113,-4.1122,-4.1141,-4.1157,-4.1169,-4.1165,-4.0899,-4.1117,-4.1115,-4.1113,-4.1112,-4.1112,-4.1126,-4.1166,-4.1164,-4.1195,-4.1197,-4.1208,-4.1243,-4.1226,-4.1254,-4.1278,-4.1249,-4.1293,-4.1293,-4.1314,-4.1316,-4.135,-4.1314,-4.134,-4.1347,-4.1355,-4.1367,-4.1163,-4.1354,-4.1353,-4.1352,-4.1352,-4.1351,0,-4.1328,-4.1323,-4.1352,-4.1368,-4.1393,-4.1345,-4.1353,-4.1378,-4.1417,-4.1421,-4.1444,-4.1485,-4.1516,-4.1497,-4.1524,-4.1555,-4.1534,-4.1563,-4.1562,-4.1562,-4.1397,-4.1379,-4.158,-4.158,-4.158,-4.158,-4.158,-4.158,-4.1436,-4.1502,-4.1483,-4.155,-4.1544,-4.1587,-4.1596,-4.1606,-4.1609,-4.1658,-4.1683,-4.167,-4.1666,-4.1691,-4.1717,-4.1711,-4.1725,-4.1763,-4.1749,-4.1596,-4.1573,-4.1552,-4.1535,-4.1765,-4.1766,-4.1911,-4.1913,-4.1914]},{"header":{"parameterUnit":"m.s-1","parameterCategory":1,"la1":30.2991,"la2":30.254,"lo1":-89.0895,"lo2":-89.0444,"dy":0.0017,"dx":0.0017,"nx":28,"ny":28,"refTime":"2023-09-22T21:00:00:Z","depth":0,"parameterNumber":3,"parameterNumberName":"V-component_of_WINDS"},"data":[0,0,0,0,0,0,0,0,0,0,0,0,0,0,0,0,0,0,0,0,0,0,0,0,0,0,0,0,0,0,0,0,0,0,0,0,0,0,0,0,0,0,0,0,0,0,0,0,0,0,0,0,0,0,0,0,0,0,-1.9507,-1.9507,0,-1.9497,-1.9497,-1.9497,-1.9457,-1.9456,-1.9455,-1.9454,-1.9444,-1.9445,-1.9445,0,0,0,0,0,0,0,0,0,0,0,0,0,-1.9492,-1.9493,-1.9507,-1.9507,-1.9507,-1.9497,-1.9497,-1.9497,-1.9457,-1.9456,-1.9455,-1.9454,-1.9444,-1.9445,-1.9445,0,0,0,0,0,0,0,0,0,0,0,0,0,-1.9492,-1.9493,-1.9507,-1.9486,-1.9484,-1.9497,-1.9497,-1.9497,-1.9457,-1.9456,-1.9455,-1.9454,-1.9444,-1.9445,-1.9446,-1.9478,0,0,-1.9448,-1.9449,0,0,0,0,0,0,0,0,-1.9492,-1.9493,-1.9489,-1.9488,-1.9485,-1.9477,-1.9488,-1.949,-1.9458,-1.9468,-1.9454,-1.9453,-1.9456,-1.9456,-1.9457,-1.9478,-1.9477,-1.9448,-1.9449,-1.9449,-1.9449,0,0,0,0,0,0,0,-1.9492,-1.9493,-1.9503,-1.9489,-1.9487,-1.9477,-1.9475,-1.9488,-1.947,-1.9467,-1.9464,-1.9463,-1.9455,-1.9456,-1.9457,-1.9477,-1.9448,-1.9449,-1.9449,-1.945,-1.9523,-1.9524,0,0,0,0,0,0,-1.9495,-1.9493,-1.9503,-1.9503,-1.9485,-1.9478,-1.9477,-1.9481,-1.9469,-1.9466,-1.9464,-1.9461,-1.9456,-1.9456,-1.9456,-1.9493,-1.9449,-1.945,-1.945,-1.9521,-1.9523,-1.9525,0,0,0,0,0,0,-1.9495,-1.9496,-1.9504,-1.9497,-1.9497,-1.948,-1.9485,-1.9481,-1.9483,-1.9468,-1.9464,-1.9469,-1.9454,-1.9455,-1.9473,-1.9492,-1.945,-1.9451,-1.952,-1.9522,-1.9524,-1.9568,0,0,0,0,0,0,-1.9495,-1.9497,-1.9509,-1.9498,-1.9498,-1.9521,-1.9486,-1.9482,-1.9484,-1.948,-1.9471,-1.9468,-1.9453,-1.9472,-1.9474,-1.9493,-1.9452,-1.9518,-1.9521,-1.9523,-1.9565,-1.9571,-1.9577,0,0,0,0,0,-1.9494,-1.9522,-1.951,-1.9511,-1.9513,-1.9522,-1.9522,-1.9504,-1.9486,-1.9498,-1.9488,-1.9469,-1.949,-1.9474,-1.9476,-1.9495,-1.9517,-1.952,-1.9523,-1.9562,-1.957,-1.9577,0,0,0,0,0,0,-1.9537,-1.952,-1.9507,-1.9532,-1.9529,-1.9516,-1.9531,-1.9514,-1.9516,-1.9512,-1.949,-1.9488,-1.9509,-1.9504,-1.9486,-1.9526,-1.95,-1.9503,-1.9529,-1.9536,-1.9542,-1.9543,-1.9452,0,0,0,0,0,-1.9549,-1.9558,-1.9543,-1.9566,-1.9565,-1.9548,-1.9552,-1.9538,-1.9534,-1.9533,-1.9524,-1.9521,-1.9526,-1.9531,-1.9535,-1.9563,-1.9561,-1.9577,-1.9584,-1.9589,-1.9593,-1.9607,-1.9614,-1.9535,-1.9535,-1.9535,0,0,-1.9574,-1.9566,-1.9574,-1.9575,-1.9571,-1.958,-1.9548,-1.9559,-1.9566,-1.9534,-1.9551,-1.9544,-1.9539,-1.9562,-1.9572,-1.9558,-1.9613,-1.9593,-1.9597,-1.9598,-1.9611,-1.9618,-1.9625,-1.9537,-1.9537,-1.9537,0,0,-1.9626,-1.9621,-1.9639,-1.9636,-1.963,-1.9618,-1.9623,-1.9612,-1.9606,-1.9622,-1.9598,-1.9606,-1.9616,-1.9614,-1.9614,-1.9663,-1.9645,-1.9665,-1.9697,-1.9711,-1.9717,-1.9723,-1.974,-1.9747,-1.9668,-1.9668,-1.9668,0,-1.9658,-1.9672,-1.9651,-1.9664,-1.9665,-1.9636,-1.9655,-1.9652,-1.9649,-1.965,-1.9635,-1.9647,-1.9641,-1.9663,-1.9675,-1.9676,-1.968,-1.9666,-1.9718,-1.9723,-1.9728,-1.9744,-1.9751,-1.9671,-1.967,-1.967,-1.967,0,-1.9712,-1.9722,-1.9737,-1.9734,-1.9737,-1.9753,-1.9734,-1.9739,-1.9725,-1.9714,-1.9731,-1.9723,-1.9725,-1.9729,-1.9715,-1.9749,-1.974,-1.9722,-1.9696,-1.9738,-1.9753,-1.976,-1.9674,-1.9673,-1.9673,-1.9672,0,0,-1.9792,-1.9775,-1.9782,-1.9779,-1.977,-1.9777,-1.9791,-1.9793,-1.9798,-1.9795,-1.9807,-1.9816,-1.9798,-1.9798,-1.9784,-1.9796,-1.9835,-1.9776,-1.9775,-1.9787,-1.9871,-1.9886,-1.9893,-1.9822,-1.9824,-1.9824,-1.9872,0,-1.9841,-1.9864,-1.9845,-1.9872,-1.988,-1.9852,-1.9864,-1.986,-1.985,-1.9856,-1.9845,-1.9852,-1.9828,-1.9828,-1.9839,-1.9828,-1.9852,-1.9824,-1.9833,-1.9834,-1.9836,-1.9901,-1.9917,-1.9962,-1.9878,-1.9879,-1.9879,0,-1.9902,-1.9902,-1.9929,-1.9917,-1.992,-1.9932,-1.9931,-1.9937,-1.9931,-1.9923,-1.9923,-1.9904,-1.9917,-1.989,-1.9907,-1.9889,-1.9891,-1.9887,-1.9888,-1.9889,-1.986,-1.9905,-1.9976,-1.9983,-1.9888,-1.9888,-1.9887,0,-1.9957,-1.9964,-1.9981,-1.998,-1.9967,-1.9975,-1.997,-1.9963,-1.9965,-1.9964,-1.9965,-1.9966,-1.9967,-1.9968,-1.9951,-1.9933,-1.997,-1.9942,-1.9964,-1.9965,-1.9974,-1.9974,-2.0048,-1.9975,-1.9975,-1.9974,-1.9974,0,-2.0015,-2.0033,-2.0006,-2.0017,-2.0036,-2.0014,-2.0033,-2.0025,-2.0018,-2.0027,-2.0002,-2.0011,-1.9987,-1.9992,-1.9979,-1.9995,-1.9995,-1.9989,-1.9986,-1.9992,-1.9993,-1.9994,-1.9991,-1.9976,-1.9976,-1.9975,-1.9975,0,-2.0081,-2.0063,-2.008,-2.0066,-2.0062,-2.0077,-2.0065,-2.0074,-2.0062,-2.0073,-2.0074,-2.0056,-2.0061,-2.0043,-2.0046,-2.0037,-2.0061,-2.0052,-2.0063,-2.006,-2.0084,-2.0082,-2.0161,-2.017,-2.0091,-2.0092,-2.0092,0,-2.0119,-2.0132,-2.0119,-2.0122,-2.0118,-2.0125,-2.0126,-2.0104,-2.0107,-2.01,-2.011,-2.0114,-2.0115,-2.0125,-2.0112,-2.0114,-2.0105,-2.0133,-2.0105,-2.0111,-2.0106,-2.0106,-2.0107,-2.0139,-2.014,-2.014,-2.0141,0,-2.0189,-2.0179,-2.0182,-2.0183,-2.0185,-2.0184,-2.0181,-2.0186,-2.0162,-2.0166,-2.0171,-2.0173,-2.0175,-2.0179,-2.0177,-2.0172,-2.0153,-2.0149,-2.0155,-2.0162,-2.0168,-2.0165,-2.0079,-2.0148,-2.0147,-2.0147,-2.0147,-2.0146,-2.0242,-2.0252,-2.0244,-2.0248,-2.0244,-2.0242,-2.0249,-2.0238,-2.0242,-2.0242,-2.0228,-2.0236,-2.0229,-2.0225,-2.0221,-2.0227,-2.0214,-2.0222,-2.0224,-2.0226,-2.023,-2.0166,-2.0227,-2.0226,-2.0226,-2.0226,-2.0226,0,-2.0311,-2.0304,-2.0308,-2.0305,-2.0308,-2.0289,-2.0284,-2.0288,-2.0295,-2.029,-2.0292,-2.0297,-2.03,-2.0287,-2.0288,-2.0295,-2.0287,-2.0296,-2.0296,-2.0295,-2.0242,-2.0237,-2.0304,-2.0304,-2.0303,-2.0303,-2.0303,-2.0303,-2.0348,-2.0364,-2.0353,-2.0366,-2.0359,-2.0366,-2.0365,-2.0363,-2.0358,-2.0366,-2.0368,-2.0359,-2.035,-2.035,-2.0352,-2.0348,-2.035,-2.0363,-2.0356,-2.0307,-2.0299,-2.0292,-2.0288,-2.0363,-2.0363,-2.0409,-2.041,-2.041]}]]